Waarnemingen

Advertentie
Mijn weer
Abisko, Zweden (2022): temperatuur & dauwpunt: 22.01.2021 09:00:00 - 28.01.2021 09:00:00 (CET)Abisko, Zweden (2022): windsnelheid & windstoten: 22.01.2021 09:00:00 - 28.01.2021 09:00:00 (CET)Abisko, Zweden (2022): windrichting: 22.01.2021 09:00:00 - 28.01.2021 09:00:00 (CET)Abisko, Zweden (2022): luchtdruk: 22.01.2021 09:00:00 - 28.01.2021 09:00:00 (CET)Abisko, Zweden (2022): zicht: 22.01.2021 09:00:00 - 28.01.2021 09:00:00 (CET)Abisko, Zweden (2022): neerslag: 22.01.2021 09:00:00 - 28.01.2021 09:00:00 (CET)
Datum & Tijd tt [°C] td [°C] ff [km/u] ff [kn] fx [km/u] fx [kn] dd ppp [hPa] vv [km] rr [mm]
28.01.2021 09:00:00 - - - - - - - - - -
28.01.2021 08:00:00 -10,4 -14,1 18 10 36 19 O 1009,0 15 -
28.01.2021 07:00:00 -10,1 -13,7 22 12 36 19 O 1008,9 11 -
28.01.2021 06:00:00 -10,0 -13,9 18 10 32 18 O 1009,1 18 -
28.01.2021 05:00:00 -9,7 -13,3 22 12 36 19 O 1009,1 11 -
28.01.2021 04:00:00 -9,4 -12,8 22 12 40 21 O 1009,1 5 0,0
28.01.2021 03:00:00 -9,2 -12,4 18 10 32 18 O 1009,3 4,7 0,1
28.01.2021 02:00:00 -8,9 -12,1 18 10 32 18 O 1009,2 9 0,0
28.01.2021 01:00:00 -8,6 -12,0 18 10 36 19 O 1009,4 9 0,0
28.01.2021 00:00:00 -8,3 -12,3 22 12 36 19 O 1009,2 17 0,0
27.01.2021 23:00:00 -8,3 -12,5 14 8 29 16 O 1009,4 20 -
27.01.2021 22:00:00 -8,4 -12,6 18 10 29 16 OZO 1009,4 20 -
27.01.2021 21:00:00 -8,5 -12,8 22 12 32 18 O 1009,5 12 0,0
27.01.2021 20:00:00 -8,7 -13,3 18 10 36 19 O 1009,6 18 -
27.01.2021 19:00:00 -8,9 -14,1 25 14 47 25 O 1009,6 20 -
27.01.2021 18:00:00 -9,3 -14,2 32 18 43 23 O 1009,3 20 -
27.01.2021 17:00:00 -9,5 -14,2 25 14 47 25 O 1009,4 20 -
27.01.2021 16:00:00 -9,3 -14,4 25 14 40 21 O 1009,3 20 -
27.01.2021 15:00:00 -9,0 -13,8 18 10 36 19 O 1009,1 20 -
27.01.2021 14:00:00 -9,3 -13,6 25 14 47 25 ONO 1008,9 20 -
27.01.2021 13:00:00 -8,8 -13,5 29 16 43 23 O 1008,5 20 -
27.01.2021 12:00:00 -11,0 -13,8 7 4 36 19 ZW 1008,9 20 0,0
27.01.2021 11:00:00 -9,5 -12,6 22 12 43 23 O 1008,7 12 0,1
27.01.2021 10:00:00 -9,5 -12,5 22 12 43 23 OZO 1008,7 20 0,0
27.01.2021 09:00:00 -10,3 -12,2 11 6 32 18 ZZO 1008,6 20 -
27.01.2021 08:00:00 -13,0 -15,4 7 4 22 12 ZW 1008,9 20 -
27.01.2021 07:00:00 -14,4 -16,7 14 8 18 10 ZW 1009,1 20 0,0
27.01.2021 06:00:00 -14,7 -17,1 14 8 22 12 ZW 1009,5 20 0,0
27.01.2021 05:00:00 -14,3 -16,7 7 4 18 10 ZW 1009,6 20 -
27.01.2021 04:00:00 -16,2 -18,3 11 6 18 10 ZW 1010,0 20 -
27.01.2021 03:00:00 -15,9 -18,1 14 8 18 10 ZW 1010,1 20 -
27.01.2021 02:00:00 -13,3 -15,8 7 4 18 10 ZZO 1010,1 20 -
27.01.2021 01:00:00 -15,1 -17,3 14 8 18 10 ZW 1010,0 20 -
27.01.2021 00:00:00 -16,6 -18,7 7 4 18 10 ZZW 1010,4 20 -
26.01.2021 23:00:00 -16,9 -19,2 11 6 14 8 ZW 1010,6 20 -
26.01.2021 22:00:00 -15,1 -17,2 11 6 22 12 ZZW 1010,5 20 0,0
26.01.2021 21:00:00 -15,6 -18,1 14 8 18 10 ZW 1010,4 20 0,0
26.01.2021 20:00:00 -16,4 -18,8 18 10 22 12 ZW 1010,1 20 -
26.01.2021 19:00:00 -17,0 -19,3 11 6 14 8 ZW 1010,0 20 -
26.01.2021 18:00:00 -18,5 -20,8 4 2 18 10 Z 1010,3 20 -
26.01.2021 17:00:00 -19,6 -21,9 14 8 18 10 ZW 1010,5 20 -
26.01.2021 16:00:00 -20,5 -22,9 4 2 7 4 W 1010,5 20 -
26.01.2021 15:00:00 -19,4 -21,6 4 2 14 8 O 1009,9 20 -
26.01.2021 14:00:00 -19,9 -22,1 7 4 11 6 O 1009,7 20 -
26.01.2021 13:00:00 -20,6 -23,1 4 2 7 4 ZZO 1009,5 20 -
26.01.2021 12:00:00 -20,2 -22,7 4 2 11 6 NO 1009,3 20 -
26.01.2021 11:00:00 -21,0 -23,3 7 4 11 6 ZZW 1009,4 20 -
26.01.2021 10:00:00 -20,9 -23,1 7 4 11 6 OZO 1009,2 20 -
26.01.2021 09:00:00 -22,1 -24,6 4 2 18 10 ZO 1009,1 20 -
26.01.2021 08:00:00 -23,1 -25,7 7 4 14 8 ZW 1008,8 20 -
26.01.2021 07:00:00 -23,6 -26,3 7 4 14 8 ZW 1008,8 20 -
26.01.2021 06:00:00 -23,8 -26,5 7 4 11 6 ZW 1008,7 20 -
26.01.2021 05:00:00 - - - - - - - - 20 -
26.01.2021 04:00:00 -24,2 -27,0 7 4 7 4 ZW 1008,4 20 -
26.01.2021 03:00:00 -23,7 -26,3 7 4 14 8 WZW 1008,3 20 -
26.01.2021 02:00:00 -24,8 -27,5 7 4 11 6 ZW 1008,2 20 -
26.01.2021 01:00:00 -24,2 -27,0 7 4 14 8 WZW 1008,2 20 -
26.01.2021 00:00:00 -23,7 -26,7 7 4 14 8 WNW 1008,0 20 -
25.01.2021 23:00:00 -24,1 -26,6 4 2 11 6 WZW 1007,8 20 -
25.01.2021 22:00:00 -23,4 -26,1 7 4 11 6 ZW 1007,3 20 -
25.01.2021 21:00:00 -23,4 -26,1 7 4 14 8 ZW 1006,9 20 -
25.01.2021 20:00:00 -23,9 -26,7 7 4 11 6 ZW 1006,8 20 -
25.01.2021 19:00:00 -23,6 -26,3 7 4 11 6 ZW 1006,5 20 -
25.01.2021 18:00:00 -22,5 -25,2 7 4 11 6 ZW 1006,1 20 -
25.01.2021 17:00:00 -23,0 -25,7 7 4 14 8 ZW 1005,9 20 -
25.01.2021 16:00:00 -22,5 -25,4 11 6 14 8 ZW 1005,9 20 -
25.01.2021 15:00:00 -22,8 -25,3 11 6 14 8 ZW 1005,6 20 -
25.01.2021 14:00:00 -22,1 -24,8 11 6 14 8 ZW 1005,3 20 -
25.01.2021 13:00:00 -21,2 -23,8 7 4 14 8 ZW 1004,6 20 -
25.01.2021 12:00:00 -20,9 -23,3 7 4 14 8 ZW 1004,4 20 0,0
25.01.2021 11:00:00 -21,2 -23,9 11 6 14 8 ZW 1004,0 20 -
25.01.2021 10:00:00 -21,4 -24,0 11 6 14 8 ZW 1003,6 20 -
25.01.2021 09:00:00 -21,0 -23,5 11 6 14 8 ZW 1002,9 20 -
25.01.2021 08:00:00 -20,6 -23,1 11 6 14 8 ZW 1002,3 20 -
25.01.2021 07:00:00 -19,8 -22,2 7 4 14 8 ZW 1001,7 20 0,0
25.01.2021 06:00:00 -19,5 -22,0 11 6 14 8 ZW 1001,4 13 0,0
25.01.2021 05:00:00 -17,6 -19,7 7 4 7 4 ZW 1001,2 20 0,0
25.01.2021 04:00:00 -16,1 -18,7 0 0 7 4 N 1000,6 17 0,0
25.01.2021 03:00:00 -16,2 -18,5 4 2 7 4 O 1000,3 3,0 0,1
25.01.2021 02:00:00 -16,3 -19,2 4 2 11 6 ZW 999,7 2,9 0,0
25.01.2021 01:00:00 -16,2 -19,4 11 6 18 10 O 999,6 20 -
25.01.2021 00:00:00 -16,2 -19,5 0 0 7 4 N 999,5 20 -
24.01.2021 23:00:00 -16,6 -20,0 4 2 7 4 ZW 999,3 20 -
24.01.2021 22:00:00 -17,0 -20,0 4 2 7 4 WZW 999,2 20 -
24.01.2021 21:00:00 -17,8 -20,9 7 4 14 8 ZW 999,1 20 -
24.01.2021 20:00:00 -19,3 -22,3 7 4 11 6 WZW 999,0 20 -
24.01.2021 19:00:00 -18,7 -21,5 4 2 14 8 NNO 998,8 20 -
24.01.2021 18:00:00 -18,9 -22,3 4 2 14 8 ZW 998,9 20 -
24.01.2021 17:00:00 -21,5 -24,8 11 6 18 10 ZW 999,3 20 -
24.01.2021 16:00:00 -22,3 -25,0 11 6 18 10 ZW 999,4 20 -
24.01.2021 15:00:00 -18,8 -21,3 7 4 22 12 O 999,0 20 -
24.01.2021 14:00:00 -20,7 -23,0 7 4 18 10 Z 998,8 20 -
24.01.2021 13:00:00 -19,0 -21,9 7 4 11 6 ZZW 998,5 18 0,0
24.01.2021 12:00:00 -17,2 -20,3 7 4 11 6 ZW 998,4 13 -
24.01.2021 11:00:00 -17,1 -20,0 4 2 7 4 W 998,2 4,9 0,0
24.01.2021 10:00:00 -16,7 -20,1 4 2 11 6 OZO 997,8 9 -
24.01.2021 09:00:00 -17,1 -20,6 4 2 11 6 O 997,6 20 0,0
24.01.2021 08:00:00 -17,5 -20,9 7 4 14 8 ZW 997,5 20 -
24.01.2021 07:00:00 -17,3 -20,6 4 2 11 6 WZW 997,0 20 -
24.01.2021 06:00:00 -17,5 -20,7 4 2 11 6 ONO 997,2 20 0,0
24.01.2021 05:00:00 -17,0 -20,7 7 4 14 8 ZZW 997,4 20 -
24.01.2021 04:00:00 -17,1 -21,5 11 6 22 12 O 997,4 20 -
24.01.2021 03:00:00 -18,2 -21,5 7 4 43 23 Z 997,5 16 0,0
24.01.2021 02:00:00 -17,5 -21,7 22 12 47 25 O 997,0 20 -
24.01.2021 01:00:00 -17,4 -21,6 36 19 54 29 O 996,8 20 -
24.01.2021 00:00:00 -17,2 -20,8 29 16 50 27 O 996,9 16 -
23.01.2021 23:00:00 -17,2 -20,9 36 19 61 33 O 996,3 10 -
23.01.2021 22:00:00 -17,1 -21,1 43 23 58 31 O 996,0 13 0,0
23.01.2021 21:00:00 -17,1 -20,6 43 23 61 33 O 996,1 5 0,0
23.01.2021 20:00:00 -16,9 -20,6 36 19 58 31 O 996,0 10 -
23.01.2021 19:00:00 -17,1 -20,6 43 23 65 35 O 995,6 5 -
23.01.2021 18:00:00 -17,2 -20,3 47 25 65 35 O 995,6 1,2 0,1
23.01.2021 17:00:00 -17,0 -20,6 40 21 58 31 O 996,3 2,8 -
23.01.2021 16:00:00 -17,0 -20,8 40 21 58 31 O 996,3 4,1 -
23.01.2021 15:00:00 -17,1 -20,7 40 21 61 33 O 996,5 19 -
23.01.2021 14:00:00 -17,1 -20,3 40 21 65 35 O 996,9 8 0,0
23.01.2021 13:00:00 -16,6 -19,5 43 23 61 33 O 996,9 2,3 0,0
23.01.2021 12:00:00 -16,3 -18,8 43 23 58 31 O 997,0 1,5 -
23.01.2021 11:00:00 -16,1 -18,7 43 23 65 35 O 996,9 3,5 -
23.01.2021 10:00:00 -16,1 -19,0 50 27 61 33 O 996,7 2,1 0,1
23.01.2021 09:00:00 -15,9 -18,6 36 19 54 29 ONO 997,4 2,4 0,0
23.01.2021 08:00:00 -15,3 -18,2 40 21 58 31 O 997,5 1,2 0,0
23.01.2021 07:00:00 -15,1 -18,6 32 18 54 29 O 998,1 2,0 0,0
23.01.2021 06:00:00 -15,0 -18,6 36 19 54 29 O 998,7 2,0 0,0
23.01.2021 05:00:00 -14,8 -18,7 32 18 58 31 O 999,2 3,7 -
23.01.2021 04:00:00 -14,9 -18,4 40 21 65 35 OZO 999,4 2,0 -
23.01.2021 03:00:00 -14,9 -18,5 50 27 68 37 O 998,9 1,6 0,1
23.01.2021 02:00:00 -15,1 -17,8 29 16 58 31 O 999,9 0,8 0,1
23.01.2021 01:00:00 -15,0 -18,3 22 12 50 27 OZO 1000,9 3,7 -
23.01.2021 00:00:00 -14,9 -18,2 32 18 54 29 OZO 1001,4 3,6 0,1
22.01.2021 23:00:00 -15,0 -17,6 36 19 54 29 O 1001,6 0,7 0,1
22.01.2021 22:00:00 -15,0 -17,6 36 19 58 31 O 1001,8 1,0 0,0
22.01.2021 21:00:00 -14,9 -17,9 36 19 54 29 ONO 1002,1 2,5 0,0
22.01.2021 20:00:00 -14,9 -17,7 36 19 47 25 ONO 1002,2 2,3 0,0
22.01.2021 19:00:00 -14,9 -17,4 32 18 50 27 O 1002,2 1,0 0,1
22.01.2021 18:00:00 -14,8 -17,1 32 18 47 25 O 1002,3 1,1 0,0
22.01.2021 17:00:00 -14,6 -17,5 32 18 54 29 O 1002,1 1,2 0,0
22.01.2021 16:00:00 -14,6 -17,5 40 21 61 33 O 1001,9 2,3 -
22.01.2021 15:00:00 -14,6 -18,1 43 23 65 35 O 1001,3 5 -
22.01.2021 14:00:00 -14,6 -18,7 29 16 65 35 O 1001,1 13 -
22.01.2021 13:00:00 -14,8 -18,5 32 18 61 33 OZO 1000,5 19 -
22.01.2021 12:00:00 -14,8 -18,0 40 21 68 37 O 1000,3 8 -
22.01.2021 11:00:00 -15,0 -17,7 22 12 58 31 O 1000,7 5 -
22.01.2021 10:00:00 -14,9 -18,3 43 23 68 37 ONO 1000,3 11 -
22.01.2021 09:00:00 -14,6 -19,5 36 19 61 33 O 999,4 18 -

tt = temperatuur
td = dauwpunt
ff = windsnelheid
fx = windstoten
dd = windrichting
ppp = luchtdruk
vv = zicht
rr = neerslag

Weerstations in de omgeving